Location: Camp Creek
(33.9000°N, 111.8167°W)
Time: 04:51:25
(UTC-07:00)

DELTA 2 R/B (1) - Visible Passes

Search period start: 11 December 2016 00:00
Search period end: 21 December 2016 00:00
Orbit: 791 x 803 km, 39.6° (Epoch: 10 December)

Date Brightness Start Highest point End Pass type
(mag) Time Alt. Az. Time Alt. Az. Time Alt. Az.
11 Dec 6.0 04:41:36 11° S 04:41:36 11° S 04:41:59 10° S visible
11 Dec 5.3 19:11:15 10° S 19:14:23 18° SSE 19:14:23 18° SSE visible
12 Dec 5.3 18:40:49 10° S 18:44:12 16° SE 18:45:31 15° ESE visible
12 Dec 5.7 20:24:31 10° SW 20:26:19 21° SW 20:26:19 21° SW visible
13 Dec 5.5 18:10:26 10° S 18:13:26 15° SE 18:16:27 10° ESE visible
13 Dec 4.6 19:53:45 10° SW 19:57:24 40° SSW 19:57:24 40° SSW visible
14 Dec 3.7 19:22:59 10° SW 19:28:27 56° SSE 19:28:28 56° SSE visible
15 Dec 3.9 18:52:14 10° SW 18:57:38 51° SSE 18:59:28 36° E visible
15 Dec 5.9 20:38:34 10° W 20:40:15 20° W 20:40:15 20° W visible
16 Dec 4.1 18:21:31 10° SW 18:26:51 47° SSE 18:30:26 20° E visible
16 Dec 4.8 20:07:42 10° W 20:11:13 38° W 20:11:13 38° W visible
17 Dec 4.3 17:50:48 10° SW 17:56:04 43° SSE 18:01:20 10° ENE visible
17 Dec 3.7 19:36:50 10° W 19:42:09 66° NW 19:42:09 66° NW visible
18 Dec 3.6 19:05:59 10° WSW 19:11:34 71° NNW 19:13:03 48° NE visible
18 Dec 6.3 20:53:08 10° WNW 20:53:50 14° WNW 20:53:50 14° WNW visible
19 Dec 3.6 18:35:08 10° WSW 18:40:44 74° NNW 18:43:55 26° ENE visible
19 Dec 5.5 20:22:15 10° WNW 20:24:42 25° WNW 20:24:42 25° WNW visible
20 Dec 3.6 18:04:18 10° WSW 18:09:55 78° NNW 18:14:47 14° ENE visible
20 Dec 4.5 19:51:23 10° WNW 19:55:34 40° NW 19:55:34 40° NW visible
